Time,TemperatureF,DewpointF,PressureIn,WindDirection,WindDirectionDegrees,WindSpeedMPH,WindSpeedGustMPH,Humidity,HourlyPrecipIn,Conditions,Clouds,dailyrainin,SoftwareType,DateUTC
2013-07-25 00:12:00,70.0,66.0,28.61,NW,315,0.0,0.0,87,0.00,,,1.34,,2013-07-25 05:12:00,
2013-07-25 00:22:00,70.0,66.0,28.61,NNW,338,0.0,0.0,88,0.00,,,1.26,,2013-07-25 05:22:00,
2013-07-25 00:32:00,70.0,66.0,28.61,North,0,0.0,0.0,88,0.00,,,0.91,,2013-07-25 05:32:00,
2013-07-25 00:43:00,69.0,65.0,28.61,NNW,330,0.0,0.0,88,0.00,,,0.83,,2013-07-25 05:43:00,
2013-07-25 00:52:00,69.0,65.0,28.61,SE,135,0.0,0.0,88,0.00,,,0.68,,2013-07-25 05:52:00,
2013-07-25 01:02:00,69.0,65.0,28.61,ESE,112,0.0,0.0,88,0.00,,,0.62,,2013-07-25 06:02:00,
2013-07-25 01:12:00,69.0,66.0,28.60,SSE,158,0.0,0.0,89,0.00,,,0.61,,2013-07-25 06:12:00,
2013-07-25 01:22:00,69.0,66.0,28.61,NE,40,0.0,0.0,90,0.00,,,0.61,,2013-07-25 06:22:00,
2013-07-25 01:32:00,68.0,65.0,28.61,NNE,13,0.0,0.0,90,0.00,,,0.60,,2013-07-25 06:32:00,
2013-07-25 01:42:00,68.0,65.0,28.61,NNE,21,0.0,0.0,91,0.00,,,0.58,,2013-07-25 06:42:00,
2013-07-25 01:52:00,68.0,66.0,28.60,NW,325,0.0,0.0,92,0.00,,,0.57,,2013-07-25 06:52:00,
2013-07-25 02:02:00,68.0,66.0,28.61,NNE,22,0.0,0.0,92,0.00,,,0.56,,2013-07-25 07:02:00,
2013-07-25 02:12:00,68.0,66.0,28.61,West,270,0.0,0.0,92,0.00,,,0.54,,2013-07-25 07:12:00,
2013-07-25 02:22:00,68.0,66.0,28.61,NNW,338,0.0,0.0,93,0.00,,,0.44,,2013-07-25 07:22:00,
2013-07-25 02:53:00,68.0,66.0,28.60,WNW,290,0.0,1.0,93,0.00,,,0.27,,2013-07-25 07:53:00,
2013-07-25 03:02:00,68.0,66.0,28.60,NNE,29,0.0,0.0,93,0.00,,,0.23,,2013-07-25 08:02:00,
2013-07-25 03:12:00,67.0,65.0,28.61,NE,52,0.0,0.0,93,0.00,,,0.20,,2013-07-25 08:12:00,
2013-07-25 03:22:00,67.0,65.0,28.61,NE,45,0.0,0.0,93,0.00,,,0.18,,2013-07-25 08:22:00,
2013-07-25 03:32:00,67.0,65.0,28.62,NNE,32,0.0,0.0,93,0.00,,,0.15,,2013-07-25 08:32:00,
2013-07-25 03:44:00,67.0,65.0,28.62,ESE,112,0.0,0.0,93,0.00,,,0.11,,2013-07-25 08:44:00,
2013-07-25 03:52:00,67.0,65.0,28.61,West,270,0.0,0.0,93,0.00,,,0.08,,2013-07-25 08:52:00,
2013-07-25 04:02:00,66.0,64.0,28.61,SSW,202,0.0,0.0,93,0.00,,,0.03,,2013-07-25 09:02:00,
2013-07-25 04:12:00,66.0,64.0,28.61,NW,315,0.0,0.0,93,0.00,,,0.01,,2013-07-25 09:12:00,
2013-07-25 04:22:00,66.0,64.0,28.62,ESE,112,0.0,0.0,93,0.00,,,0.00,,2013-07-25 09:22:00,
2013-07-25 04:33:00,66.0,64.0,28.62,ESE,112,0.0,0.0,93,0.00,,,0.00,,2013-07-25 09:33:00,
2013-07-25 04:43:00,66.0,64.0,28.62,East,90,0.0,0.0,93,0.00,,,0.00,,2013-07-25 09:43:00,
2013-07-25 04:52:00,66.0,64.0,28.62,East,90,0.0,0.0,93,0.00,,,0.00,,2013-07-25 09:52:00,
2013-07-25 05:02:00,66.0,64.0,28.61,ESE,112,0.0,0.0,93,0.00,,,0.00,,2013-07-25 10:02:00,
2013-07-25 05:12:00,65.0,63.0,28.62,WSW,248,0.0,0.0,93,0.00,,,0.00,,2013-07-25 10:12:00,
2013-07-25 05:22:00,66.0,64.0,28.61,SW,225,0.0,0.0,94,0.00,,,0.00,,2013-07-25 10:22:00,
2013-07-25 05:32:00,65.0,63.0,28.61,SW,225,0.0,0.0,94,0.00,,,0.00,,2013-07-25 10:32:00,
2013-07-25 05:42:00,65.0,63.0,28.61,WSW,248,0.0,0.0,94,0.00,,,0.00,,2013-07-25 10:42:00,
2013-07-25 05:53:00,65.0,63.0,28.62,West,270,0.0,0.0,94,0.00,,,0.00,,2013-07-25 10:53:00,
2013-07-25 06:02:00,65.0,63.0,28.62,West,270,0.0,0.0,93,0.00,,,0.00,,2013-07-25 11:02:00,
2013-07-25 06:12:00,65.0,63.0,28.61,West,270,0.0,0.0,93,0.00,,,0.00,,2013-07-25 11:12:00,
2013-07-25 06:22:00,65.0,63.0,28.62,West,270,0.0,0.0,94,0.00,,,0.00,,2013-07-25 11:22:00,
2013-07-25 06:32:00,65.0,63.0,28.63,West,270,0.0,0.0,94,0.00,,,0.00,,2013-07-25 11:32:00,
2013-07-25 06:43:00,65.0,63.0,28.63,West,270,0.0,0.0,94,0.00,,,0.00,,2013-07-25 11:43:00,
2013-07-25 06:52:00,65.0,63.0,28.62,West,270,0.0,0.0,94,0.00,,,0.00,,2013-07-25 11:52:00,
2013-07-25 07:02:00,65.0,64.0,28.63,West,270,0.0,0.0,95,0.00,,,0.00,,2013-07-25 12:02:00,
2013-07-25 07:12:00,66.0,65.0,28.64,North,353,0.0,1.0,96,0.00,,,0.00,,2013-07-25 12:12:00,
2013-07-25 07:22:00,66.0,65.0,28.64,NE,45,0.0,0.0,96,0.00,,,0.00,,2013-07-25 12:22:00,
2013-07-25 07:32:00,67.0,66.0,28.64,NE,54,0.0,0.0,96,0.00,,,0.00,,2013-07-25 12:32:00,
2013-07-25 07:45:00,67.0,66.0,28.64,South,172,1.0,2.0,96,0.00,,,0.00,,2013-07-25 12:45:00,
2013-07-25 07:53:00,68.0,67.0,28.65,SSW,205,0.0,1.0,95,0.00,,,0.00,,2013-07-25 12:53:00,
2013-07-25 08:02:00,69.0,67.0,28.65,WSW,247,1.0,2.0,93,0.00,,,0.00,,2013-07-25 13:02:00,
2013-07-25 08:12:00,69.0,67.0,28.65,NW,315,2.0,3.0,93,0.00,,,0.00,,2013-07-25 13:12:00,
2013-07-25 08:22:00,70.0,68.0,28.66,South,187,1.0,2.0,92,0.00,,,0.00,,2013-07-25 13:22:00,
2013-07-25 08:33:00,71.0,68.0,28.66,WSW,244,1.0,2.0,91,0.00,,,0.00,,2013-07-25 13:33:00,
2013-07-25 08:43:00,72.0,69.0,28.66,NW,326,1.0,2.0,90,0.00,,,0.00,,2013-07-25 13:43:00,
2013-07-25 08:53:00,73.0,70.0,28.66,SSE,165,1.0,2.0,89,0.00,,,0.00,,2013-07-25 13:53:00,
2013-07-25 09:02:00,74.0,70.0,28.66,SW,230,0.0,3.0,88,0.00,,,0.00,,2013-07-25 14:02:00,
2013-07-25 09:12:00,77.0,71.0,28.66,North,3,2.0,3.0,81,0.00,,,0.00,,2013-07-25 14:12:00,
2013-07-25 09:33:00,78.0,71.0,28.66,WNW,284,2.0,3.0,79,0.00,,,0.00,,2013-07-25 14:33:00,
2013-07-25 09:53:00,79.0,71.0,28.66,South,188,2.0,3.0,77,0.00,,,0.00,,2013-07-25 14:53:00,
2013-07-25 10:02:00,79.0,72.0,28.66,NW,312,2.0,3.0,78,0.00,,,0.00,,2013-07-25 15:02:00,
2013-07-25 10:12:00,80.0,72.0,28.65,WNW,300,2.0,3.0,77,0.00,,,0.00,,2013-07-25 15:12:00,
2013-07-25 10:22:00,81.0,72.0,28.66,ENE,76,1.0,2.0,75,0.00,,,0.00,,2013-07-25 15:22:00,
2013-07-25 10:32:00,81.0,73.0,28.66,NW,318,2.0,5.0,76,0.00,,,0.00,,2013-07-25 15:32:00,
2013-07-25 10:44:00,81.0,72.0,28.66,WSW,254,1.0,3.0,75,0.00,,,0.00,,2013-07-25 15:44:00,
2013-07-25 10:52:00,82.0,73.0,28.66,North,357,1.0,3.0,74,0.00,,,0.00,,2013-07-25 15:52:00,
2013-07-25 11:02:00,82.0,72.0,28.66,West,262,2.0,3.0,73,0.00,,,0.00,,2013-07-25 16:02:00,
2013-07-25 11:12:00,83.0,73.0,28.66,NE,38,2.0,3.0,71,0.00,,,0.00,,2013-07-25 16:12:00,
2013-07-25 11:22:00,82.0,71.0,28.66,SSE,148,2.0,2.0,70,0.00,,,0.00,,2013-07-25 16:22:00,
2013-07-25 11:33:00,83.0,73.0,28.66,NE,45,1.0,2.0,71,0.00,,,0.00,,2013-07-25 16:33:00,
2013-07-25 11:45:00,82.0,72.0,28.67,WNW,303,2.0,3.0,72,0.00,,,0.00,,2013-07-25 16:45:00,
2013-07-25 11:53:00,82.0,72.0,28.67,ENE,63,2.0,3.0,72,0.00,,,0.00,,2013-07-25 16:53:00,
2013-07-25 12:03:00,82.0,72.0,28.67,West,277,1.0,5.0,73,0.00,,,0.00,,2013-07-25 17:03:00,
2013-07-25 12:12:00,82.0,72.0,28.67,WNW,295,2.0,3.0,72,0.00,,,0.00,,2013-07-25 17:12:00,
2013-07-25 12:22:00,82.0,72.0,28.67,WNW,295,2.0,3.0,72,0.00,,,0.00,,2013-07-25 17:22:00,
2013-07-25 12:32:00,82.0,72.0,28.67,WNW,295,2.0,3.0,72,0.00,,,0.00,,2013-07-25 17:32:00,
2013-07-25 12:43:00,82.0,70.0,28.67,SSE,166,2.0,5.0,68,0.00,,,0.00,,2013-07-25 17:43:00,
2013-07-25 12:53:00,82.0,70.0,28.67,SSE,166,2.0,5.0,68,0.00,,,0.00,,2013-07-25 17:53:00,
2013-07-25 13:02:00,83.0,71.0,28.66,SSW,199,2.0,3.0,68,0.00,,,0.00,,2013-07-25 18:02:00,
2013-07-25 13:12:00,82.0,70.0,28.67,WNW,283,2.0,5.0,68,0.00,,,0.00,,2013-07-25 18:12:00,
2013-07-25 13:22:00,83.0,72.0,28.67,NNW,339,1.0,2.0,69,0.00,,,0.00,,2013-07-25 18:22:00,
2013-07-25 13:33:00,82.0,71.0,28.66,South,187,0.0,3.0,69,0.00,,,0.00,,2013-07-25 18:33:00,
2013-07-25 13:43:00,82.0,70.0,28.66,SE,135,2.0,3.0,68,0.00,,,0.00,,2013-07-25 18:43:00,
2013-07-25 13:52:00,82.0,70.0,28.66,NNE,19,1.0,3.0,68,0.00,,,0.00,,2013-07-25 18:52:00,
2013-07-25 14:02:00,82.0,70.0,28.66,NNE,19,1.0,3.0,68,0.00,,,0.00,,2013-07-25 19:02:00,
2013-07-25 14:12:00,83.0,72.0,28.67,NW,314,1.0,2.0,70,0.00,,,0.00,,2013-07-25 19:12:00,
2013-07-25 14:22:00,83.0,71.0,28.67,NNW,334,2.0,2.0,68,0.00,,,0.00,,2013-07-25 19:22:00,
2013-07-25 14:43:00,83.0,71.0,28.66,NNE,24,1.0,2.0,68,0.00,,,0.00,,2013-07-25 19:43:00,
2013-07-25 14:52:00,83.0,71.0,28.66,NNE,24,1.0,2.0,68,0.00,,,0.00,,2013-07-25 19:52:00,
2013-07-25 15:02:00,86.0,70.0,28.66,NNW,330,2.0,5.0,59,0.00,,,0.00,,2013-07-25 20:02:00,
2013-07-25 15:12:00,86.0,70.0,28.66,NNW,330,2.0,5.0,59,0.00,,,0.00,,2013-07-25 20:12:00,
2013-07-25 15:22:00,87.0,71.0,28.66,North,358,2.0,5.0,59,0.00,,,0.00,,2013-07-25 20:22:00,
2013-07-25 15:32:00,87.0,69.0,28.66,SE,134,3.0,5.0,56,0.00,,,0.00,,2013-07-25 20:32:00,
2013-07-25 15:43:00,87.0,69.0,28.66,SE,134,3.0,5.0,56,0.00,,,0.00,,2013-07-25 20:43:00,
2013-07-25 15:54:00,87.0,72.0,28.66,East,80,1.0,5.0,61,0.00,,,0.00,,2013-07-25 20:54:00,
2013-07-25 16:03:00,86.0,71.0,28.66,SE,132,3.0,6.0,61,0.00,,,0.00,,2013-07-25 21:03:00,
2013-07-25 16:12:00,86.0,70.0,28.66,North,0,1.0,5.0,60,0.00,,,0.00,,2013-07-25 21:12:00,
2013-07-25 16:22:00,89.0,73.0,28.65,NNW,338,3.0,5.0,59,0.00,,,0.00,,2013-07-25 21:22:00,
2013-07-25 16:32:00,88.0,71.0,28.65,NW,316,2.0,5.0,58,0.00,,,0.00,,2013-07-25 21:32:00,
2013-07-25 16:44:00,88.0,71.0,28.65,NW,316,2.0,5.0,58,0.00,,,0.00,,2013-07-25 21:44:00,
2013-07-25 16:52:00,88.0,72.0,28.65,SSE,152,2.0,3.0,59,0.00,,,0.00,,2013-07-25 21:52:00,
2013-07-25 17:02:00,88.0,72.0,28.65,SSE,152,2.0,3.0,59,0.00,,,0.00,,2013-07-25 22:02:00,
2013-07-25 17:12:00,87.0,70.0,28.64,WSW,238,2.0,3.0,58,0.00,,,0.00,,2013-07-25 22:12:00,
2013-07-25 17:22:00,87.0,71.0,28.64,WNW,294,2.0,5.0,59,0.00,,,0.00,,2013-07-25 22:22:00,
2013-07-25 17:32:00,85.0,72.0,28.64,NNW,338,2.0,3.0,65,0.00,,,0.00,,2013-07-25 22:32:00,
2013-07-25 17:43:00,87.0,72.0,28.63,NNW,333,2.0,3.0,62,0.00,,,0.00,,2013-07-25 22:43:00,
2013-07-25 17:52:00,88.0,72.0,28.63,SSW,209,2.0,5.0,60,0.00,,,0.00,,2013-07-25 22:52:00,
2013-07-25 18:02:00,89.0,72.0,28.63,West,280,1.0,5.0,57,0.00,,,0.00,,2013-07-25 23:02:00,
2013-07-25 18:12:00,89.0,73.0,28.63,NNW,337,2.0,5.0,59,0.00,,,0.00,,2013-07-25 23:12:00,
2013-07-25 18:22:00,89.0,73.0,28.62,North,351,2.0,5.0,59,0.00,,,0.00,,2013-07-25 23:22:00,
2013-07-25 18:32:00,89.0,73.0,28.62,West,278,1.0,2.0,60,0.00,,,0.00,,2013-07-25 23:32:00,
2013-07-25 18:43:00,89.0,73.0,28.62,West,278,1.0,2.0,60,0.00,,,0.00,,2013-07-25 23:43:00,
2013-07-25 18:52:00,86.0,72.0,28.61,NNW,346,1.0,3.0,63,0.00,,,0.00,,2013-07-25 23:52:00,
2013-07-25 19:02:00,86.0,71.0,28.61,WNW,282,2.0,2.0,62,0.00,,,0.00,,2013-07-26 00:02:00,
2013-07-25 19:12:00,85.0,71.0,28.61,West,275,1.0,2.0,63,0.00,,,0.00,,2013-07-26 00:12:00,
2013-07-25 19:22:00,85.0,71.0,28.61,West,275,1.0,2.0,63,0.00,,,0.00,,2013-07-26 00:22:00,
2013-07-25 19:33:00,84.0,71.0,28.61,SSW,202,0.0,2.0,66,0.00,,,0.00,,2013-07-26 00:33:00,
2013-07-25 19:43:00,84.0,71.0,28.61,South,181,0.0,2.0,65,0.00,,,0.00,,2013-07-26 00:43:00,
2013-07-25 19:52:00,83.0,70.0,28.61,WSW,243,1.0,2.0,66,0.00,,,0.00,,2013-07-26 00:52:00,
2013-07-25 20:02:00,82.0,70.0,28.61,SSE,160,1.0,2.0,67,0.00,,,0.00,,2013-07-26 01:02:00,
2013-07-25 20:12:00,81.0,69.0,28.61,WSW,240,0.0,2.0,68,0.00,,,0.00,,2013-07-26 01:12:00,
2013-07-25 20:22:00,81.0,69.0,28.61,WSW,240,0.0,2.0,68,0.00,,,0.00,,2013-07-26 01:22:00,
2013-07-25 20:32:00,80.0,70.0,28.61,North,5,1.0,1.0,71,0.00,,,0.00,,2013-07-26 01:32:00,
2013-07-25 20:52:00,78.0,68.0,28.60,West,281,0.0,0.0,71,0.00,,,0.00,,2013-07-26 01:52:00,
2013-07-25 21:02:00,78.0,68.0,28.60,West,281,0.0,0.0,71,0.00,,,0.00,,2013-07-26 02:02:00,
2013-07-25 21:12:00,77.0,67.0,28.61,NW,326,0.0,0.0,72,0.00,,,0.00,,2013-07-26 02:12:00,
2013-07-25 21:22:00,77.0,68.0,28.61,NNW,339,0.0,0.0,73,0.00,,,0.00,,2013-07-26 02:22:00,
2013-07-25 21:32:00,76.0,67.0,28.61,ESE,121,0.0,0.0,74,0.00,,,0.00,,2013-07-26 02:32:00,
2013-07-25 21:43:00,76.0,67.0,28.61,ESE,121,0.0,0.0,74,0.00,,,0.00,,2013-07-26 02:43:00,
2013-07-25 21:52:00,76.0,67.0,28.61,NW,315,0.0,0.0,75,0.00,,,0.00,,2013-07-26 02:52:00,
2013-07-25 22:02:00,76.0,68.0,28.62,SSW,195,0.0,0.0,76,0.00,,,0.00,,2013-07-26 03:02:00,
2013-07-25 22:12:00,76.0,68.0,28.62,SSW,192,0.0,2.0,76,0.00,,,0.00,,2013-07-26 03:12:00,
2013-07-25 22:22:00,76.0,68.0,28.63,South,181,0.0,2.0,77,0.00,,,0.00,,2013-07-26 03:22:00,
2013-07-25 22:32:00,76.0,69.0,28.63,South,171,0.0,0.0,78,0.00,,,0.00,,2013-07-26 03:32:00,
2013-07-25 22:43:00,75.0,68.0,28.63,SSW,201,0.0,0.0,79,0.00,,,0.00,,2013-07-26 03:43:00,
2013-07-25 22:53:00,75.0,68.0,28.63,South,185,2.0,2.0,79,0.00,,,0.00,,2013-07-26 03:53:00,
2013-07-25 23:02:00,76.0,69.0,28.62,South,170,1.0,5.0,79,0.00,,,0.00,,2013-07-26 04:02:00,
2013-07-25 23:12:00,75.0,69.0,28.63,SW,233,0.0,1.0,81,0.00,,,0.00,,2013-07-26 04:12:00,
2013-07-25 23:22:00,75.0,69.0,28.63,SW,225,2.0,3.0,81,0.00,,,0.00,,2013-07-26 04:22:00,
2013-07-25 23:42:00,75.0,69.0,28.63,North,1,0.0,2.0,81,0.00,,,0.00,,2013-07-26 04:42:00,
2013-07-25 23:53:00,75.0,69.0,28.64,SSE,157,1.0,2.0,82,0.00,,,0.00,,2013-07-26 04:53:00,